Volver al catálogo

FENGYUN 1C DEB

ActivoPO
NORAD 29897·DEBRIS·🇨🇳 China

Lanzado May 10, 1999 desde Taiyuan Satellite Launch Center

Loading…

Próximos Pases (próximas 24 horas)

TLE

ActualizadoSource: Space-Track

Época: Sep 14, 2026, 00:02 UTC

1 29897U 99025GT  26257.00195904  .00001173  00000-0  12531-2 0  9996
2 29897  98.6108  93.0065 0295903 141.2344  13.7285 13.58129470966758

Sigue FENGYUN 1C DEB en tiempo real con AllMySat

Download on the App Store